Home > Weather > Metz > Past weeks

Flag for France Weather for the Past 2 Weeks in Metz, Lorraine, France

Now
50 °F

Clear.


Feels Like: 49 °F
Forecast: 51 / 74 °F
Wind: 3 mph from Southwest

Location: Metz-Nancy-Lorraine

Current Time: May 7, 2016 at 3:14:54 AM

Latest Report: May 7, 2016 at 2:30 AM


Visibility: 10 mi

Pressure: 29.89 "Hg

Humidity: 76%

Dew Point: 43 °F

Location of MetzLocation

Historic Weather in Metz — Graph

°F

Metz Temperature Yesterday

Maximum temperature yesterday: 73 °F (at 2:00 PM)
Minimum temperature yesterday: 46 °F (at 4:30 AM)
Average temperature yesterday: 61 °F

High & Low Weather Summary for the Past Weeks

 TemperatureHumidityPressure
High73 °F (May 6, 2:00 PM)100% (Apr 23, 8:00 AM)30.36 "Hg (Apr 23, 8:00 AM)
Low30 °F (Apr 25, 5:30 AM)33% (May 6, 3:30 PM)29.62 "Hg (Apr 26, 3:30 AM)
Average48 °F72%30.02 "Hg
* Reported Apr 22 2:00 AM — May 7 2:00 AM, Metz, Weather by CustomWeather, © 2016

Note: Actual official high and low records may vary slightly from our data, if they occured in-between our weather recording intervals... More about our weather records

Advertising

Metz Weather History for the Previous 24 Hours

Scroll right to see more
 ConditionsComfort  
Time TempWeatherWind HumidityBarometerVisibility
2:00 AM
Sat, May 7
52 °FClear.No wind77%29.89 "Hg10 mi
1:30 AM52 °FClear.7 mph82%29.89 "Hg10 mi
1:00 AM54 °FClear.6 mph77%29.89 "Hg10 mi
12:30 AM55 °FClear.9 mph72%29.89 "Hg10 mi
12:00 AM55 °FClear.10 mph72%29.89 "Hg10 mi
11:30 PM
Fri, May 6
57 °FClear.10 mph67%29.89 "Hg10 mi
11:00 PM59 °FClear.10 mph63%29.89 "Hg10 mi
10:30 PM61 °FClear.9 mph59%29.89 "Hg10 mi
10:00 PM61 °FClear.8 mph59%29.89 "Hg10 mi
9:30 PM63 °FSunny.8 mph56%29.89 "Hg10 mi
9:00 PM64 °FSunny.6 mph56%29.89 "Hg10 mi
8:30 PM68 °FSunny.5 mph53%29.89 "Hg10 mi
8:00 PM70 °FSunny.5 mph50%29.89 "Hg10 mi
7:30 PM72 °FSunny.5 mph50%29.89 "Hg10 mi
7:00 PM73 °FPassing clouds.6 mph41%29.89 "HgN/A
6:30 PM73 °FSunny.8 mph41%29.89 "Hg10 mi
6:00 PM73 °FPassing clouds.7 mph41%29.89 "HgN/A
5:30 PM73 °FPassing clouds.6 mph36%29.89 "HgN/A
5:00 PM73 °FPassing clouds.6 mph38%29.89 "HgN/A
4:30 PM73 °FPassing clouds.8 mph36%29.92 "HgN/A
4:00 PM73 °FPassing clouds.10 mph36%29.92 "HgN/A
3:30 PM73 °FPassing clouds.6 mph33%29.92 "HgN/A
3:00 PM73 °FPassing clouds.10 mph36%29.92 "HgN/A
2:30 PM73 °FPassing clouds.12 mph36%29.95 "HgN/A
2:00 PM73 °FPassing clouds.8 mph38%29.95 "HgN/A
1:30 PM72 °FPassing clouds.10 mph36%29.95 "HgN/A
1:00 PM72 °FPassing clouds.13 mph36%29.98 "HgN/A
12:30 PM70 °FSunny.17 mph35%29.98 "Hg10 mi
12:00 PM68 °FSunny.13 mph43%29.98 "Hg10 mi
11:30 AM68 °FPassing clouds.12 mph40%29.98 "HgN/A
11:00 AM66 °FPassing clouds.10 mph49%29.98 "HgN/A
10:30 AM64 °FPassing clouds.9 mph52%29.98 "HgN/A
10:00 AM63 °FSunny.10 mph56%29.98 "Hg10 mi
9:30 AM61 °FPassing clouds.8 mph55%29.98 "HgN/A
9:00 AM57 °FSunny.8 mph63%29.98 "Hg10 mi
8:30 AM55 °FPassing clouds.7 mph67%29.98 "HgN/A
8:00 AM54 °FPassing clouds.7 mph67%29.98 "HgN/A
7:30 AM52 °FSunny.7 mph72%29.98 "Hg10 mi
7:00 AM48 °FClear.9 mph82%29.98 "Hg10 mi
6:30 AM46 °FClear.12 mph87%29.98 "Hg10 mi
6:00 AM46 °FClear.12 mph87%29.98 "Hg10 mi
5:30 AM46 °FClear.13 mph87%29.98 "Hg10 mi
5:00 AM46 °FClear.12 mph87%29.98 "Hg10 mi
4:30 AM46 °FClear.7 mph87%29.98 "Hg10 mi
4:00 AM48 °FClear.9 mph82%30.01 "Hg10 mi
3:30 AM48 °FClear.10 mph82%30.01 "Hg10 mi
3:00 AM50 °FClear.12 mph76%30.01 "Hg10 mi
Weather by CustomWeather, © 2016

See weather overviewHow to use our weather pages